Weather History for Kalamazoo, MI

Change the Weather History Date:

Saturday, September 6, 2014

  Actual Average Record
Temperature  
Mean Temperature 64 °F 66 °F  
Max Temperature 74 °F 77 °F 97 °F (1954)
Min Temperature 54 °F 56 °F 37 °F (1962)
Degree Days  
Heating Degree Days 1 2  
Month to date heating degree days 1 8  
Since 1 July heating degree days 33 24  
Cooling Degree Days 0 3  
Month to date cooling degree days 48 21  
Year to date cooling degree days 599 632  
Growing Degree Days 15 (Base 50)    
Moisture  
Dew Point 56 °F    
Average Humidity 68    
Maximum Humidity 90    
Minimum Humidity 46    
Precipitation  
Precipitation T in 0.13 in 1.17 in (1969)
Month to date precipitation 1.04 0.91  
Year to date precipitation 17.83 24.50  
Sea Level Pressure  
Sea Level Pressure 30.10 in    
Wind  
Wind Speed 8 mph (NNW)    
Max Wind Speed 16 mph    
Max Gust Speed 22 mph    
Visibility 10 miles    
Events Rain    
T = Trace of Precipitation, MM = Missing Value Source: NWS Daily Summary

Daily Weather History Graph

Daily Weather History Graph

Search for Another Location

Airport:

Trip Planner

Search our weather history database for the weather conditions in past years. The results will help you decide how hot, cold, wet, or windy it might be!

Date:

Astronomy

Sep. 06, 2014 Rise Set
Actual Time 7:12 AM EDT 8:07 PM EDT
Civil Twilight 6:44 AM EDT 8:35 PM EDT
Nautical Twilight 6:10 AM EDT 9:09 PM EDT
Astronomical Twilight 5:34 AM EDT 9:45 PM EDT
Moon 6:24 PM EDT (9/6) 4:11 AM EDT (9/6)
Length of Visible Light 13h 51m
Length of Day
12h 54m
Waxing Gibbous, 91% of the Moon is Illuminated
Sep 6
Waxing Gibbous
Sep 8
Full
Sep 15
Last Quarter
Sep 24
New
Oct 1
First Quarter

Hourly Weather History & Observations

Time (EDT) Temp. Dew Point Humidity Pressure Visibility Wind Dir Wind Speed Gust Speed Precip Events Conditions
12:53 AM 66.0 °F 63.0 °F 90% 30.03 in 10.0 mi WNW 5.8 mph - 0.00 in Rain Light Rain
1:53 AM 66.0 °F 62.1 °F 87% 30.02 in 10.0 mi NNW 8.1 mph - 0.00 in   Mostly Cloudy
2:53 AM 64.9 °F 61.0 °F 87% 30.01 in 10.0 mi North 8.1 mph - N/A   Overcast
3:53 AM 64.4 °F 60.8 °F 88% 30.03 in 10.0 mi North 6.9 mph - N/A   Overcast
4:53 AM 64.4 °F 60.8 °F 88% 30.04 in 10.0 mi NNW 8.1 mph - N/A   Overcast
5:53 AM 64.4 °F 60.8 °F 88% 30.05 in 10.0 mi NW 6.9 mph - N/A   Overcast
6:53 AM 63.0 °F 59.0 °F 87% 30.05 in 10.0 mi NW 5.8 mph - N/A   Overcast
7:53 AM 63.0 °F 59.0 °F 87% 30.06 in 10.0 mi NNW 6.9 mph - N/A   Scattered Clouds
8:53 AM 64.0 °F 60.1 °F 87% 30.08 in 10.0 mi NNW 9.2 mph - N/A   Partly Cloudy
9:05 AM 64.0 °F 60.1 °F 87% 30.09 in 10.0 mi North 9.2 mph - N/A   Mostly Cloudy
9:53 AM 64.9 °F 60.1 °F 84% 30.10 in 10.0 mi NNW 9.2 mph - N/A   Overcast
10:53 AM 64.9 °F 59.0 °F 81% 30.11 in 10.0 mi North 11.5 mph - N/A   Mostly Cloudy
11:00 AM 64.9 °F 57.9 °F 78% 30.12 in 10.0 mi North 11.5 mph - N/A   Mostly Cloudy
11:53 AM 66.9 °F 57.9 °F 73% 30.13 in 10.0 mi NNW 8.1 mph - N/A   Mostly Cloudy
12:53 PM 69.1 °F 55.0 °F 61% 30.13 in 10.0 mi NNW 9.2 mph - N/A   Mostly Cloudy
1:38 PM 72.0 °F 54.0 °F 53% 30.14 in 10.0 mi North 8.1 mph - N/A   Scattered Clouds
1:53 PM 71.1 °F 54.0 °F 55% 30.12 in 10.0 mi NNW 12.7 mph 18.4 mph N/A   Scattered Clouds
2:53 PM 73.0 °F 52.0 °F 48% 30.13 in 10.0 mi NNW 10.4 mph - N/A   Scattered Clouds
3:53 PM 71.1 °F 51.1 °F 49% 30.11 in 10.0 mi NNW 10.4 mph - N/A   Partly Cloudy
4:53 PM 72.0 °F 51.1 °F 48% 30.11 in 10.0 mi NNW 11.5 mph - N/A   Clear
5:53 PM 72.0 °F 52.0 °F 49% 30.12 in 10.0 mi NW 9.2 mph - N/A   Clear
6:53 PM 69.1 °F 52.0 °F 54% 30.13 in 10.0 mi NW 11.5 mph - N/A   Clear
7:53 PM 64.9 °F 52.0 °F 63% 30.14 in 10.0 mi NW 8.1 mph - N/A   Clear
8:53 PM 62.1 °F 51.1 °F 67% 30.16 in 10.0 mi NW 8.1 mph - N/A   Clear
9:53 PM 59.0 °F 51.1 °F 75% 30.18 in 10.0 mi Calm Calm - N/A   Clear
10:53 PM 57.0 °F 51.1 °F 81% 30.19 in 10.0 mi Calm Calm - N/A   Clear
11:53 PM 55.9 °F 51.1 °F 84% 30.18 in 10.0 mi Calm Calm - N/A   Clear